Location: Friaudour
(46.0460°N, 1.2873°E)
Time: 20:42:22
(UTC+00:00)

IRS-1D - Pass Details

Date: 14 July 2020
Orbit: 739 x 817 km, 98.6° (Epoch: 14 August)

Event Time Altitude Azimuth Distance (km) Brightness Sun altitude
Rises 02:18:50 0° 13° (NNE) 3,196 8.1 -15.5°
Reaches altitude 10° 02:21:08 10° 13° (NNE) 2,263 7.1 -15.2°
Maximum altitude 02:26:07 85° 285° (WNW) 749 3.4 -14.7°
Enters shadow 02:29:29 21° 198° (SSW) 1,631 4.6 -14.4°
